La Belle Poule — FBPU — position and weather

sailwx.info

Track history (hours):
 
Tides and Currents Weather Stations Pressure Air Temp Water Temp Dewpoint Dewpoint Depression Visibility Wind Speed Wind Dir Waves Ship Positions

La Belle Poule (France)

Ship's website: http://www.defense.gouv.fr/english/portail-defense

Last reported at 2020-Jul-16 12:00 UTC. Time now 2020-Aug-07 09:38 UTC.
Position N 48°23' W 004°30'.
Warning: this ship's position is 21 days out of date.

; draft 3.6 m.

Type: Sailing vessel. MMSI: 228796000.

Date/timePositionNaut miles runAvg speedWind from/ knotsBaromVisibWave heightAir tempDewpointWater temp
2020-Jul-16 12:00N 48°23' W 004°30'0 0.0
2020-Jul-16 11:30N 48°23' W 004°30'0 0.0
2020-Jul-16 09:00N 48°23' W 004°30'0 0.2
2020-Jul-16 07:30N 48°23' W 004°30'3 1.0
2020-Jul-16 04:00N 48°19' W 004°32'0 0.0
2020-Jul-16 03:01N 48°19' W 004°32'0 0.0
2020-Jul-16 02:30N 48°19' W 004°32'0 0.0
2020-Jul-15 23:31N 48°19' W 004°32'0 0.0
2020-Jul-15 22:31N 48°19' W 004°32'0 0.0
2020-Jul-15 21:30N 48°19' W 004°32'0 0.0
2020-Jul-15 21:00N 48°19' W 004°32'33 0.6
2020-Jul-13 17:00N 47°51' W 004°06'22 6.3
2020-Jul-13 13:31N 47°41' W 003°38'3 6.3
2020-Jul-13 12:59N 47°39' W 003°33'21 4.0
2020-Jul-13 07:43N 47°29' W 003°06'0 0.0
2020-Jul-13 02:58N 47°29' W 003°06'0 0.0
2020-Jul-12 22:30N 47°29' W 003°06'0 0.0
2020-Jul-12 22:00N 47°29' W 003°06'0 0.0
2020-Jul-12 19:00N 47°29' W 003°06'0 0.0
2020-Jul-12 18:30N 47°29' W 003°06'0 0.0
2020-Jul-12 14:30N 47°29' W 003°06'0 0.0
2020-Jul-12 13:30N 47°29' W 003°06'0 0.0
2020-Jul-12 12:30N 47°29' W 003°06'0 0.0
2020-Jul-12 11:00N 47°29' W 003°06'0 0.0
2020-Jul-12 07:30N 47°29' W 003°06'0 0.0
2020-Jul-12 05:00N 47°29' W 003°06'0 0.0
2020-Jul-12 01:31N 47°29' W 003°06'0 0.0
2020-Jul-12 00:00N 47°29' W 003°06'0 0.0
2020-Jul-11 22:30N 47°29' W 003°06'0 0.0
2020-Jul-11 21:01N 47°29' W 003°06'0 0.0
2020-Jul-11 19:00N 47°29' W 003°06'0 0.0
2020-Jul-11 15:30N 47°29' W 003°06'0 0.0
2020-Jul-11 13:30N 47°29' W 003°06'0 0.0
2020-Jul-11 11:00N 47°29' W 003°06'0 0.0
2020-Jul-11 09:00N 47°29' W 003°06'0 0.0
2020-Jul-11 08:00N 47°29' W 003°06'0 0.0
2020-Jul-11 03:30N 47°29' W 003°06'0 0.0
2020-Jul-11 03:01N 47°29' W 003°06'0 0.0
2020-Jul-11 02:30N 47°29' W 003°06'0 0.0
2020-Jul-11 02:00N 47°29' W 003°06'0 0.0
2020-Jul-11 00:59N 47°29' W 003°06'0 0.0
2020-Jul-10 22:31N 47°29' W 003°06'0 0.0
2020-Jul-10 19:30N 47°29' W 003°06'0 0.0
2020-Jul-10 19:01N 47°29' W 003°06'1 0.4
2020-Jul-10 16:00N 47°30' W 003°05'1 1.4
2020-Jul-10 15:00N 47°29' W 003°03'1 0.8
2020-Jul-10 13:31N 47°28' W 003°02'5 3.5
2020-Jul-10 12:01N 47°24' W 003°06'5 4.7
2020-Jul-10 11:00N 47°21' W 003°01'2 0.8
2020-Jul-10 08:31N 47°20' W 002°58'5 2.3
2020-Jul-10 06:25N 47°20' W 002°51'0 0.0
2020-Jul-10 06:00N 47°20' W 002°51'0 0.0
2020-Jul-10 05:29N 47°20' W 002°51'0 0.0
2020-Jul-10 02:19N 47°20' W 002°51'0 0.1
2020-Jul-10 02:00N 47°20' W 002°51'0 0.0
2020-Jul-10 01:30N 47°20' W 002°51'0 0.0
2020-Jul-10 01:00N 47°20' W 002°51'0 0.0
2020-Jul-10 00:30N 47°20' W 002°51'0 0.0
2020-Jul-09 22:00N 47°20' W 002°51'0 0.0
2020-Jul-09 20:00N 47°20' W 002°51'0 0.0
2020-Jul-09 16:00N 47°20' W 002°51'2 1.5
2020-Jul-09 15:00N 47°19' W 002°50'17 6.4
2020-Jul-09 12:25N 47°05' W 002°36'7 6.1
2020-Jul-09 11:14N 46°59' W 002°31'2 3.3
2020-Jul-09 10:30N 46°57' W 002°30'7 4.4
2020-Jul-09 09:00N 46°51' W 002°25'3 5.5
2020-Jul-09 08:30N 46°48' W 002°24'5 3.4
2020-Jul-09 07:00N 46°44' W 002°20'0 0.2
2020-Jul-09 06:00N 46°44' W 002°20'3 0.3
2020-Jul-08 22:00N 46°41' W 002°19'0 0.0
2020-Jul-08 20:30N 46°41' W 002°19'1 0.3
2020-Jul-08 15:25N 46°41' W 002°17'56 5.7
2020-Jul-08 05:30N 46°09' W 001°09'  
Track history (hours):
 
Tides and Currents Weather Stations Pressure Air Temp Water Temp Dewpoint Dewpoint Depression Visibility Wind Speed Wind Dir Waves Ship Positions

La Belle Poule (France)

Ship's website: http://www.defense.gouv.fr/english/portail-defense

Last reported at 2020-Jul-16 12:00 UTC. Time now 2020-Aug-07 09:38 UTC.
Position N 48°23' W 004°30'.
Warning: this ship's position is 21 days out of date.

; draft 3.6 m.

Type: Sailing vessel. MMSI: 228796000.

Date/timePositionNaut miles runAvg speedWind from/ knotsBaromVisibWave heightAir tempDewpointWater temp
2020-Jul-16 12:00N 48°23' W 004°30'0 0.0
2020-Jul-16 11:30N 48°23' W 004°30'0 0.0
2020-Jul-16 09:00N 48°23' W 004°30'0 0.2
2020-Jul-16 07:30N 48°23' W 004°30'3 1.0
2020-Jul-16 04:00N 48°19' W 004°32'0 0.0
2020-Jul-16 03:01N 48°19' W 004°32'0 0.0
2020-Jul-16 02:30N 48°19' W 004°32'0 0.0
2020-Jul-15 23:31N 48°19' W 004°32'0 0.0
2020-Jul-15 22:31N 48°19' W 004°32'0 0.0
2020-Jul-15 21:30N 48°19' W 004°32'0 0.0
2020-Jul-15 21:00N 48°19' W 004°32'33 0.6
2020-Jul-13 17:00N 47°51' W 004°06'22 6.3
2020-Jul-13 13:31N 47°41' W 003°38'3 6.3
2020-Jul-13 12:59N 47°39' W 003°33'21 4.0
2020-Jul-13 07:43N 47°29' W 003°06'0 0.0
2020-Jul-13 02:58N 47°29' W 003°06'0 0.0
2020-Jul-12 22:30N 47°29' W 003°06'0 0.0
2020-Jul-12 22:00N 47°29' W 003°06'0 0.0
2020-Jul-12 19:00N 47°29' W 003°06'0 0.0
2020-Jul-12 18:30N 47°29' W 003°06'0 0.0
2020-Jul-12 14:30N 47°29' W 003°06'0 0.0
2020-Jul-12 13:30N 47°29' W 003°06'0 0.0
2020-Jul-12 12:30N 47°29' W 003°06'0 0.0
2020-Jul-12 11:00N 47°29' W 003°06'0 0.0
2020-Jul-12 07:30N 47°29' W 003°06'0 0.0
2020-Jul-12 05:00N 47°29' W 003°06'0 0.0
2020-Jul-12 01:31N 47°29' W 003°06'0 0.0
2020-Jul-12 00:00N 47°29' W 003°06'0 0.0
2020-Jul-11 22:30N 47°29' W 003°06'0 0.0
2020-Jul-11 21:01N 47°29' W 003°06'0 0.0
2020-Jul-11 19:00N 47°29' W 003°06'0 0.0
2020-Jul-11 15:30N 47°29' W 003°06'0 0.0
2020-Jul-11 13:30N 47°29' W 003°06'0 0.0
2020-Jul-11 11:00N 47°29' W 003°06'0 0.0
2020-Jul-11 09:00N 47°29' W 003°06'0 0.0
2020-Jul-11 08:00N 47°29' W 003°06'0 0.0
2020-Jul-11 03:30N 47°29' W 003°06'0 0.0
2020-Jul-11 03:01N 47°29' W 003°06'0 0.0
2020-Jul-11 02:30N 47°29' W 003°06'0 0.0
2020-Jul-11 02:00N 47°29' W 003°06'0 0.0
2020-Jul-11 00:59N 47°29' W 003°06'0 0.0
2020-Jul-10 22:31N 47°29' W 003°06'0 0.0
2020-Jul-10 19:30N 47°29' W 003°06'0 0.0
2020-Jul-10 19:01N 47°29' W 003°06'1 0.4
2020-Jul-10 16:00N 47°30' W 003°05'1 1.4
2020-Jul-10 15:00N 47°29' W 003°03'1 0.8
2020-Jul-10 13:31N 47°28' W 003°02'5 3.5
2020-Jul-10 12:01N 47°24' W 003°06'5 4.7
2020-Jul-10 11:00N 47°21' W 003°01'2 0.8
2020-Jul-10 08:31N 47°20' W 002°58'5 2.3
2020-Jul-10 06:25N 47°20' W 002°51'0 0.0
2020-Jul-10 06:00N 47°20' W 002°51'0 0.0
2020-Jul-10 05:29N 47°20' W 002°51'0 0.0
2020-Jul-10 02:19N 47°20' W 002°51'0 0.1
2020-Jul-10 02:00N 47°20' W 002°51'0 0.0
2020-Jul-10 01:30N 47°20' W 002°51'0 0.0
2020-Jul-10 01:00N 47°20' W 002°51'0 0.0
2020-Jul-10 00:30N 47°20' W 002°51'0 0.0
2020-Jul-09 22:00N 47°20' W 002°51'0 0.0
2020-Jul-09 20:00N 47°20' W 002°51'0 0.0
2020-Jul-09 16:00N 47°20' W 002°51'2 1.5
2020-Jul-09 15:00N 47°19' W 002°50'17 6.4
2020-Jul-09 12:25N 47°05' W 002°36'7 6.1
2020-Jul-09 11:14N 46°59' W 002°31'2 3.3
2020-Jul-09 10:30N 46°57' W 002°30'7 4.4
2020-Jul-09 09:00N 46°51' W 002°25'3 5.5
2020-Jul-09 08:30N 46°48' W 002°24'5 3.4
2020-Jul-09 07:00N 46°44' W 002°20'0 0.2
2020-Jul-09 06:00N 46°44' W 002°20'3 0.3
2020-Jul-08 22:00N 46°41' W 002°19'0 0.0
2020-Jul-08 20:30N 46°41' W 002°19'1 0.3
2020-Jul-08 15:25N 46°41' W 002°17'56 5.7
2020-Jul-08 05:30N 46°09' W 001°09'  

Dump ship's entire track history